Location: L�tisburg
(47.3947°N, 9.0820°E)
Time: 00:02:58
(UTC+00:00)

GP-B - Pass Details

Date: 03 March 2021
Orbit: 631 x 635 km, 89.8° (Epoch: 20 April)

Event Time Altitude Azimuth Distance (km) Brightness Sun altitude
Rises 17:45:06 0° 144° (SE) 2,919 6.2 -6.4°
Reaches altitude 10° 17:47:36 10° 131° (SE) 2,017 5.3 -6.8°
Maximum altitude 17:51:12 25° 77° (ENE) 1,295 4.1 -7.5°
Drops below altitude 10° 17:54:49 10° 23° (NNE) 2,032 5.5 -8.1°
Sets 17:57:21 0° 10° (N) 2,946 6.4 -8.5°
